When you browse on this site, cookies collect data to enhance your experience and personalize the content and advertising you see.
Visit our Privacy Policy to learn more. By continuing to use the site, you agree to this use of cookies and data.
  • In Portugal
  • List of Countries
  • For 7 days
  • Water Temperature
  • Satellite Maps
  • Weather Map
  • Weather Widgets
  • user-avatar
    Login

    Hourly Weather Volova Gora

    Today, 23 May, Thursday

    Time Temperature Precipitation Wind Pressure Humidity
    00:00 +18°C° 0 mm 1 mps 742 mmHg 72%
    01:00 +16°C° 0 mm 1 mps 741 mmHg 76%
    02:00 +15°C° 0 mm 1 mps 741 mmHg 81%
    03:00 +15°C° 0 mm 1 mps 741 mmHg 82%
    04:00 +15°C° 0 mm 1 mps 741 mmHg 83%
    05:00 +15°C° 0 mm 1 mps 741 mmHg 84%
    06:00 +18°C° 0 mm 1 mps 742 mmHg 76%
    07:00 +20°C° 0 mm 1 mps 742 mmHg 68%
    08:00 +21°C° 0 mm 2 mps 742 mmHg 60%
    09:00 +23°C° 0 mm 2 mps 742 mmHg 54%
    10:00 +25°C° 0 mm 2 mps 742 mmHg 48%
    11:00 +26°C° 0 mm 2 mps 742 mmHg 42%
    12:00 +26°C° 0 mm 2 mps 742 mmHg 41%
    13:00 +26°C° 0 mm 2 mps 742 mmHg 41%
    14:00 +26°C° 0 mm 2 mps 742 mmHg 41%
    15:00 +26°C° 0 mm 2 mps 741 mmHg 45%
    16:00 +26°C° 0 mm 2 mps 741 mmHg 48%
    17:00 +25°C° 0 mm 2 mps 741 mmHg 51%
    18:00 +24°C° 0.2 mm 2 mps 741 mmHg 61%
    19:00 +21°C° 0.2 mm 2 mps 741 mmHg 70%
    20:00 +20°C° 0.2 mm 1 mps 741 mmHg 79%
    21:00 +19°C° 0 mm 1 mps 741 mmHg 82%
    22:00 +18°C° 0 mm 1 mps 741 mmHg 85%
    23:00 +16°C° 0 mm 1 mps 741 mmHg 89%

    Tomorrow, 24 May, Friday

    Time Temperature Precipitation Wind Pressure Humidity
    00:00 +16°C° 0.2 mm 1 mps 741 mmHg 90%
    01:00 +16°C° 0.2 mm 1 mps 741 mmHg 92%
    02:00 +15°C° 0.2 mm 1 mps 741 mmHg 94%
    03:00 +15°C° 0 mm 1 mps 741 mmHg 94%
    04:00 +15°C° 0 mm 1 mps 741 mmHg 93%
    05:00 +16°C° 0 mm 1 mps 741 mmHg 93%
    06:00 +18°C° 0 mm 1 mps 742 mmHg 87%
    07:00 +20°C° 0 mm 1 mps 742 mmHg 81%
    08:00 +22°C° 0 mm 1 mps 742 mmHg 74%
    09:00 +22°C° 1.7 mm 1 mps 742 mmHg 73%
    10:00 +23°C° 1.7 mm 2 mps 742 mmHg 73%
    11:00 +23°C° 1.7 mm 2 mps 742 mmHg 72%
    12:00 +23°C° 1.8 mm 2 mps 742 mmHg 72%
    13:00 +23°C° 1.8 mm 2 mps 742 mmHg 72%
    14:00 +23°C° 1.8 mm 1 mps 742 mmHg 73%
    15:00 +23°C° 0.9 mm 1 mps 742 mmHg 73%
    16:00 +23°C° 0.9 mm 1 mps 741 mmHg 73%
    17:00 +23°C° 0.9 mm 1 mps 741 mmHg 73%
    18:00 +22°C° 0.5 mm 1 mps 741 mmHg 79%
    19:00 +20°C° 0.5 mm 1 mps 741 mmHg 85%
    20:00 +19°C° 0.5 mm 1 mps 741 mmHg 90%
    21:00 +18°C° 0 mm 1 mps 741 mmHg 92%
    22:00 +16°C° 0 mm 1 mps 741 mmHg 93%
    23:00 +16°C° 0 mm 1 mps 741 mmHg 95%

    Day after tomorrow, 25 May, Saturday

    Time Temperature Precipitation Wind Pressure Humidity
    00:00 +15°C° 0 mm 2 mps 741 mmHg 96%
    01:00 +15°C° 0 mm 2 mps 741 mmHg 97%
    02:00 +14°C° 0 mm 2 mps 741 mmHg 98%
    03:00 +14°C° 0 mm 2 mps 741 mmHg 97%
    04:00 +14°C° 0 mm 2 mps 741 mmHg 97%
    05:00 +13°C° 0 mm 2 mps 740 mmHg 96%
    06:00 +15°C° 0 mm 2 mps 740 mmHg 91%
    07:00 +16°C° 0 mm 2 mps 741 mmHg 86%
    08:00 +17°C° 0 mm 2 mps 741 mmHg 81%
    09:00 +18°C° 0 mm 2 mps 740 mmHg 71%
    10:00 +20°C° 0 mm 3 mps 740 mmHg 61%
    11:00 +21°C° 0 mm 3 mps 740 mmHg 52%
    12:00 +22°C° 0 mm 3 mps 740 mmHg 50%
    13:00 +22°C° 0 mm 3 mps 740 mmHg 47%
    14:00 +24°C° 0 mm 3 mps 739 mmHg 45%
    15:00 +22°C° 0 mm 3 mps 739 mmHg 46%
    16:00 +22°C° 0 mm 3 mps 739 mmHg 47%
    17:00 +22°C° 0 mm 3 mps 739 mmHg 48%
    18:00 +20°C° 0 mm 3 mps 739 mmHg 58%
    19:00 +18°C° 0 mm 3 mps 739 mmHg 69%
    20:00 +16°C° 0 mm 3 mps 739 mmHg 80%
    21:00 +14°C° 0 mm 3 mps 739 mmHg 82%
    22:00 +13°C° 0 mm 3 mps 739 mmHg 84%
    23:00 +11°C° 0 mm 4 mps 739 mmHg 86%

    26 May, Sunday

    Time Temperature Precipitation Wind Pressure Humidity
    00:00 +10°C° 0 mm 3 mps 739 mmHg 87%
    01:00 +9°C° 0 mm 3 mps 739 mmHg 87%
    02:00 +8°C° 0 mm 3 mps 739 mmHg 88%
    03:00 +8°C° 0 mm 3 mps 739 mmHg 89%
    04:00 +8°C° 0 mm 3 mps 739 mmHg 90%
    05:00 +8°C° 0 mm 3 mps 739 mmHg 91%
    06:00 +9°C° 0 mm 3 mps 739 mmHg 86%
    07:00 +10°C° 0 mm 4 mps 739 mmHg 82%
    08:00 +12°C° 0 mm 4 mps 739 mmHg 77%
    09:00 +13°C° 0.1 mm 4 mps 739 mmHg 71%
    10:00 +15°C° 0.1 mm 5 mps 739 mmHg 66%
    11:00 +17°C° 0.1 mm 5 mps 738 mmHg 60%
    12:00 +16°C° 0.4 mm 5 mps 738 mmHg 65%
    13:00 +15°C° 0.4 mm 5 mps 738 mmHg 71%
    14:00 +15°C° 0.4 mm 5 mps 737 mmHg 76%
    15:00 +13°C° 0.9 mm 5 mps 737 mmHg 81%
    16:00 +12°C° 0.9 mm 4 mps 737 mmHg 86%
    17:00 +11°C° 0.9 mm 4 mps 737 mmHg 91%
    18:00 +10°C° 0.6 mm 4 mps 737 mmHg 92%
    19:00 +8°C° 0.6 mm 4 mps 737 mmHg 93%
    20:00 +9°C° 0.6 mm 3 mps 737 mmHg 93%
    21:00 +9°C° 0.3 mm 3 mps 737 mmHg 93%
    22:00 +7°C° 0.3 mm 4 mps 737 mmHg 92%
    23:00 +7°C° 0.3 mm 4 mps 737 mmHg 91%

    27 May, Monday

    Time Temperature Precipitation Wind Pressure Humidity
    00:00 +6°C° 0.1 mm 4 mps 738 mmHg 92%
    01:00 +5°C° 0.1 mm 4 mps 738 mmHg 93%
    02:00 +5°C° 0.1 mm 4 mps 738 mmHg 94%
    03:00 +5°C° 0 mm 4 mps 738 mmHg 94%
    04:00 +5°C° 0 mm 4 mps 739 mmHg 93%
    05:00 +6°C° 0 mm 4 mps 739 mmHg 92%
    06:00 +7°C° 0 mm 4 mps 740 mmHg 87%
    07:00 +8°C° 0 mm 5 mps 740 mmHg 81%
    08:00 +9°C° 0 mm 5 mps 741 mmHg 75%
    09:00 +10°C° 0 mm 5 mps 741 mmHg 73%
    10:00 +12°C° 0 mm 5 mps 742 mmHg 72%
    11:00 +12°C° 0 mm 5 mps 742 mmHg 70%
    12:00 +13°C° 0 mm 5 mps 742 mmHg 67%
    13:00 +14°C° 0 mm 5 mps 743 mmHg 65%
    14:00 +15°C° 0 mm 5 mps 743 mmHg 62%
    15:00 +15°C° 0 mm 4 mps 743 mmHg 64%
    16:00 +15°C° 0 mm 4 mps 743 mmHg 65%
    17:00 +14°C° 0 mm 4 mps 743 mmHg 67%
    18:00 +13°C° 0 mm 3 mps 743 mmHg 72%
    19:00 +12°C° 0 mm 3 mps 744 mmHg 78%
    20:00 +12°C° 0 mm 2 mps 744 mmHg 84%
    21:00 +12°C° 0 mm 2 mps 744 mmHg 87%
    22:00 +10°C° 0 mm 2 mps 744 mmHg 90%
    23:00 +10°C° 0 mm 3 mps 744 mmHg 93%

    28 May, Tuesday

    Time Temperature Precipitation Wind Pressure Humidity
    00:00 +10°C° 0 mm 3 mps 744 mmHg 91%
    01:00 +10°C° 0 mm 3 mps 744 mmHg 90%
    02:00 +10°C° 0 mm 3 mps 744 mmHg 89%
    03:00 +10°C° 0 mm 3 mps 744 mmHg 87%
    04:00 +10°C° 0 mm 3 mps 743 mmHg 86%
    05:00 +11°C° 0 mm 3 mps 743 mmHg 84%
    06:00 +13°C° 0 mm 3 mps 743 mmHg 78%
    07:00 +14°C° 0 mm 4 mps 743 mmHg 72%
    08:00 +17°C° 0 mm 4 mps 743 mmHg 65%
    09:00 +18°C° 0 mm 4 mps 743 mmHg 64%
    10:00 +19°C° 0 mm 5 mps 742 mmHg 62%
    11:00 +20°C° 0 mm 5 mps 742 mmHg 61%
    12:00 +19°C° 1.9 mm 5 mps 742 mmHg 72%
    13:00 +16°C° 1.9 mm 5 mps 741 mmHg 83%
    14:00 +15°C° 1.9 mm 4 mps 741 mmHg 94%
    15:00 +15°C° 1 mm 4 mps 740 mmHg 94%
    16:00 +15°C° 1 mm 4 mps 740 mmHg 95%
    17:00 +16°C° 1 mm 3 mps 739 mmHg 95%
    18:00 +16°C° 0 mm 3 mps 739 mmHg 95%
    19:00 +16°C° 0 mm 2 mps 739 mmHg 96%
    20:00 +16°C° 0 mm 2 mps 739 mmHg 96%
    21:00 +16°C° 0 mm 1 mps 739 mmHg 97%
    22:00 +16°C° 0 mm 1 mps 739 mmHg 97%
    23:00 +15°C° 0 mm 1 mps 739 mmHg 97%
    Show more